Location: Foligno
(42.9600°N, 12.7050°E)
Time: 15:29:22
(UTC+02:00)

ISS - Pass Details

Date: 28 May 2020
Orbit: 417 x 420 km, 51.6° (Epoch: 25 May)

Event Time Altitude Azimuth Distance (km) Brightness Sun altitude
Rises 23:10:24 0° 302° (WNW) 2,366 1.1 -20.1°
Reaches altitude 10° 23:12:30 10° 301° (WNW) 1,500 -0.1 -20.3°
Enters shadow 23:15:35 71° 272° (W) 445 -3.7 -20.5°
